Location: Clanezzo
(45.7500°N, 9.6000°E)
Time: 22:08:11
(UTC+00:00)

AO-92 - Pass Details

Date: 07 July 2022
Orbit: 469 x 481 km, 97.4° (Epoch: 17 August)

Event Time Altitude Azimuth Distance (km) Brightness Sun altitude
Exits shadow 21:43:49 32° 209° (SSW) 847 ? -17.9°
Maximum altitude 21:45:03 47° 261° (W) 651 ? -17.9°
Drops below altitude 10° 21:48:32 10° 336° (NNW) 1,673 ? -18.2°
Sets 21:50:40 0° 342° (NNW) 2,561 ? -18.3°
